[Date Prev][Date Next][Thread Prev][Thread Next] - [Date Index][Thread Index][Author Index]

2 Line ISS Keps 12-18



ISS
1 25544U 98067A   01352.27708333  .00078312  00000-0  94854-3 0  8593
2 25544  51.6400 242.3970 0003250  49.8925  92.8337 15.59955959175807


----
Via the sarex mailing list at AMSAT.ORG courtesy of AMSAT-NA.
To unsubscribe, send "unsubscribe sarex" to Majordomo@amsat.org



AMSAT Top AMSAT Home